Location: ???????
(55.4362°N, 38.1183°E)
Time: 03:49:31
(UTC+00:00)

Cosmos 1892 - Pass Details

Date: 17 June 2021
Orbit: 501 x 524 km, 82.5° (Epoch: 26 July)

Event Time Altitude Azimuth Distance (km) Brightness Sun altitude
Exits shadow 22:42:41 13° 202° (SSW) 1,558 4.4 -9.6°
Maximum altitude 22:46:02 67° 283° (WNW) 576 2.9 -9.4°
Drops below altitude 10° 22:49:56 10° 8° (N) 1,780 7.0 -9.3°
Sets 22:52:06 0° 11° (N) 2,672 8.5 -9.2°
